Voltar ao catálogo

CALSPHERE 2

AtivoCiênciaPO
NORAD 902·PAYLOAD·🇺🇸 United States

Lançado Oct 6, 1964 de Vandenberg Space Force Base

Loading…

Próximas Passagens (próximas 24 horas)

TLE

AtualizadoSource: Space-Track

Época: Sep 14, 2026, 12:31 UTC

1 00902U 64063E   26257.52172433  .00000015  00000-0  93195-5 0  9997
2 00902  90.2290  77.8960 0017665 333.6473  87.0278 13.52906314868341

Acompanhe CALSPHERE 2 em tempo real com AllMySat

Download on the App Store